Вернуться в каталог

STARLINK-35224

АктивенСвязьSSO
NORAD 65811·PAYLOAD·🇺🇸 United States

Запущен Sep 26, 2025 с Vandenberg Space Force Base

Loading…

Ближайшие Пролёты (ближайшие 24 часа)

TLE

СвежийSource: CelesTrak SupGP

Эпоха: Sep 14, 2026, 15:38 UTC

1 65811C 25218W   26257.65187500 -.00043394  00000+0 -13471-2 0  2572
2 65811  97.2838 115.0759 0001397  86.3869 320.1570 15.33460433    19

Отслеживайте STARLINK-35224 в реальном времени с AllMySat

Download on the App Store